Capo Carbonara,

8:50 AM CEST on September 23, 2017 (GMT +0200)
Capo Carbonara

Weather History for LIEC - September, 2013

Change the Weather History Date:

Thursday, September 26, 2013

  Actual Average Record
Temperature  
Mean Temperature 76 °F -  
Max Temperature 84 °F 73 °F - ()
Min Temperature 69 °F 63 °F - ()
Cooling Degree Days 12    
Growing Degree Days 26 (Base 50)    
Moisture  
Dew Point 68 °F    
Average Humidity 78    
Maximum Humidity 83    
Minimum Humidity 69    
Precipitation  
Precipitation 0.00 in 0.05 in - ()
Sea Level Pressure  
Sea Level Pressure 29.98 in    
Wind  
Wind Speed 4 mph ()    
Max Wind Speed 9 mph    
Max Gust Speed -    
Visibility 6.4 miles    
Events      
T = Trace of Precipitation, MM = Missing Value Source: Averaged Metar Reports

Daily Weather History Graph

Daily Weather History Graph

Search for Another Location

Airport or City:

Trip Planner

Search our weather history database for the weather conditions in past years. The results will help you decide how hot, cold, wet, or windy it might be!

Date:

Astronomy

Sep. 26, 2013 Rise Set
Actual Time 7:13 AM CEST 7:12 PM CEST
Civil Twilight 6:46 AM CEST 7:39 PM CEST
Nautical Twilight 6:15 AM CEST 8:10 PM CEST
Astronomical Twilight 5:43 AM CEST 8:41 PM CEST
Moon 11:58 PM CEST (9/26) 1:50 PM CEST (9/26)
Length of Visible Light 12h 52m
Length of Day
11h 59m
Waning Gibbous, 57% of the Moon is Illuminated
Sep 26
Waning Gibbous
Sep 27
Last Quarter
Oct 5
New
Oct 12
First Quarter
Oct 19
Full

Hourly Weather History & Observations

Time (CEST) Temp. Heat Index Dew Point Humidity Pressure Visibility Wind Dir Wind Speed Gust Speed Precip Events Conditions
12:55 AM 73.4 °F - 68.0 °F 83% 29.95 in - NNE 2.3 mph - N/A   Clear
1:55 AM 71.6 °F - 66.2 °F 83% 29.95 in - NNE 4.6 mph - N/A   Clear
2:00 AM 72 °F - 66 °F 75% 29.96 in 6 mi NNE 4.6 mph - -  
2:55 AM 73.4 °F - 66.2 °F 78% 29.95 in - North 3.5 mph - N/A   Clear
3:55 AM 71.6 °F - 66.2 °F 83% 29.95 in - North 3.5 mph - N/A   Clear
4:55 AM 71.6 °F - 66.2 °F 83% 29.98 in - West 3.5 mph - N/A   Clear
5:00 AM 72 °F - 66 °F 77% 29.96 in 12 mi West 3.5 mph - -  
5:55 AM 69.8 °F - 64.4 °F 83% 29.92 in - West 4.6 mph - N/A   Clear
6:55 AM 71.6 °F - 66.2 °F 83% 29.95 in 6.2 mi West 4.6 mph - N/A   Partly Cloudy
7:55 AM 71.6 °F - 64.4 °F 78% 29.95 in 6.2 mi NE 1.2 mph - N/A   Scattered Clouds
8:00 AM 72 °F - 65 °F 73% 29.96 in 6 mi NE 1.2 mph - -   Partly Cloudy
8:55 AM 71.6 °F - 64.4 °F 78% 29.98 in 6.2 mi Calm Calm - N/A   Scattered Clouds
9:55 AM 71.6 °F - 66.2 °F 83% 29.98 in 6.2 mi WSW 3.5 mph - N/A   Scattered Clouds
10:55 AM 75.2 °F - 68.0 °F 78% 29.98 in 6.2 mi SW 6.9 mph - N/A   Scattered Clouds
11:00 AM 75 °F - 68 °F 72% 29.99 in 6 mi SW 6.9 mph - -   Partly Cloudy
11:55 AM 75.2 °F - 68.0 °F 78% 30.01 in 6.2 mi SW 8.1 mph - N/A   Scattered Clouds
12:55 PM 78.8 °F - 69.8 °F 74% 30.01 in 6.2 mi SSW 6.9 mph - N/A   Scattered Clouds
1:55 PM 80.6 °F 85.4 °F 73.4 °F 79% 29.98 in 6.2 mi SW 9.2 mph - N/A   Partly Cloudy
2:00 PM 81 °F - 73 °F 71% 29.98 in 6 mi SW 9.2 mph - -   Scattered Clouds
2:55 PM 82.4 °F 87.2 °F 71.6 °F 70% 29.98 in 6.2 mi SSW 8.1 mph - N/A   Partly Cloudy
3:55 PM 84.2 °F 92.3 °F 75.2 °F 74% 29.98 in 6.2 mi SSW 6.9 mph - N/A   Partly Cloudy
4:55 PM 82.4 °F 89.5 °F 75.2 °F 79% 29.98 in 6.2 mi SSW 6.9 mph - N/A   Partly Cloudy
5:00 PM 83 °F - 74 °F 69% 29.96 in 6 mi SSW 6.9 mph - -   Scattered Clouds
5:55 PM 82.4 °F 88.2 °F 73.4 °F 74% 29.98 in 6.2 mi SSW 4.6 mph - N/A   Partly Cloudy
6:55 PM 78.8 °F - 73.4 °F 83% 29.98 in 6.2 mi SSW 3.5 mph - N/A   Partly Cloudy
7:55 PM 75.2 °F - 68.0 °F 78% 29.98 in 6.2 mi WSW 1.2 mph - N/A   Partly Cloudy
8:00 PM 74 °F - 69 °F 78% 29.98 in 6 mi WSW 1.2 mph - -   Scattered Clouds
8:55 PM 73.4 °F - 68.0 °F 83% 29.98 in - NE 2.3 mph - N/A   Clear
9:55 PM 73.4 °F - 66.2 °F 78% 30.01 in - NE 6.9 mph - N/A   Clear
10:55 PM 73.4 °F - 66.2 °F 78% 30.01 in - NE 5.8 mph - N/A   Clear
11:00 PM 73 °F - 67 °F 76% 30.00 in 6 mi NE 5.8 mph - -  
11:55 PM 73.4 °F - 66.2 °F 78% 30.01 in - NNE 6.9 mph - N/A   Clear